Weather History for Elizabeth City, NC

Change the Weather History Date:

Thursday, March 7, 2013

  Actual Average Record
Temperature  
Mean Temperature 48 °F 48 °F  
Max Temperature 56 °F 58 °F 85 °F (1974)
Min Temperature 40 °F 37 °F 21 °F (1960)
Degree Days  
Heating Degree Days 17 17  
Month to date heating degree days 152 127  
Since 1 July heating degree days 2161 2599  
Cooling Degree Days 0 0  
Month to date cooling degree days 0 0  
Year to date cooling degree days 5 2  
Moisture  
Dew Point 31 °F    
Average Humidity 54    
Maximum Humidity 70    
Minimum Humidity 38    
Precipitation  
Precipitation 0.00 in 0.12 in 1.77 in (1941)
Month to date precipitation 0.76 0.74  
Year to date precipitation 5.81 7.18  
Snow  
Snow 0.00 in - 2.50 in (1962)
Month to date snowfall T  
Since 1 July snowfall T  
Snow Depth 0.00 in    
Sea Level Pressure  
Sea Level Pressure 30.02 in    
Wind  
Wind Speed 17 mph (NW)    
Max Wind Speed 29 mph    
Max Gust Speed 39 mph    
Visibility 10 miles    
Events      
T = Trace of Precipitation, MM = Missing Value Source: NWS Daily Summary

Daily Weather History Graph

Daily Weather History Graph

Search for Another Location

Airport:

Trip Planner

Search our weather history database for the weather conditions in past years. The results will help you decide how hot, cold, wet, or windy it might be!

Date:

Astronomy

Mar. 07, 2013 Rise Set
Actual Time 6:26 AM EST 6:05 PM EST
Civil Twilight 6:00 AM EST 6:30 PM EST
Nautical Twilight 5:31 AM EST 7:00 PM EST
Astronomical Twilight 5:01 AM EST 7:30 PM EST
Moon 3:18 AM EST (3/7) 1:56 PM EST (3/7)
Length of Visible Light 12h 30m
Length of Day
11h 38m
Waning Crescent, 20% of the Moon is Illuminated
Mar 7
Waning Crescent
Mar 11
New
Mar 19
First Quarter
Mar 27
Full
Apr 3
Last Quarter

Hourly Weather History & Observations

Time (EST) Temp. Windchill Dew Point Humidity Pressure Visibility Wind Dir Wind Speed Gust Speed Precip Events Conditions
12:54 AM 43.0 °F 34.0 °F 34.0 °F 71% 29.86 in 10.0 mi NW 21.9 mph 33.4 mph N/A   Overcast
1:54 AM 43.0 °F 34.2 °F 33.1 °F 68% 29.88 in 10.0 mi NW 20.7 mph 29.9 mph N/A   Overcast
2:54 AM 44.1 °F 35.4 °F 33.1 °F 65% 29.88 in 10.0 mi NNW 21.9 mph 31.1 mph N/A   Overcast
3:25 AM 44.6 °F 37.2 °F 33.8 °F 66% 29.90 in 10.0 mi NNW 17.3 mph 28.8 mph N/A   Overcast
3:54 AM 44.1 °F 35.7 °F 32.0 °F 63% 29.92 in 10.0 mi NNW 20.7 mph 33.4 mph N/A   Overcast
4:22 AM 42.8 °F 34.3 °F 33.8 °F 70% 29.94 in 10.0 mi NW 19.6 mph 28.8 mph N/A   Overcast
4:40 AM 42.8 °F 34.5 °F 33.8 °F 70% 29.96 in 10.0 mi NNW 18.4 mph 27.6 mph N/A   Overcast
4:54 AM 43.0 °F 34.8 °F 33.1 °F 68% 29.96 in 10.0 mi NW 18.4 mph 26.5 mph N/A   Overcast
5:54 AM 44.1 °F 37.7 °F 32.0 °F 63% 29.98 in 10.0 mi NNW 12.7 mph - N/A   Overcast
6:54 AM 42.1 °F 35.7 °F 30.9 °F 65% 30.00 in 10.0 mi NW 11.5 mph - N/A   Scattered Clouds
7:54 AM 46.0 °F 38.5 °F 32.0 °F 58% 30.02 in 10.0 mi NW 19.6 mph 26.5 mph N/A   Mostly Cloudy
8:54 AM 46.9 °F - 30.9 °F 54% 30.04 in 10.0 mi NW 24.2 mph 31.1 mph N/A   Clear
9:54 AM 48.9 °F - 30.0 °F 48% 30.06 in 10.0 mi NNW 20.7 mph 32.2 mph N/A   Clear
10:54 AM 50.0 °F - 30.0 °F 46% 30.06 in 10.0 mi NW 21.9 mph 32.2 mph N/A   Clear
11:54 AM 52.0 °F - 32.0 °F 47% 30.06 in 10.0 mi NNW 17.3 mph 26.5 mph N/A   Clear
12:54 PM 53.1 °F - 30.9 °F 43% 30.04 in 10.0 mi NW 20.7 mph 26.5 mph N/A   Partly Cloudy
1:54 PM 55.0 °F - 30.9 °F 40% 30.02 in 10.0 mi NNW 18.4 mph 25.3 mph N/A   Clear
2:54 PM 55.0 °F - 30.0 °F 38% 30.03 in 10.0 mi NNW 17.3 mph - N/A   Scattered Clouds
3:54 PM 53.1 °F - 28.9 °F 40% 30.04 in 10.0 mi NW 19.6 mph 24.2 mph N/A   Mostly Cloudy
4:54 PM 53.1 °F - 28.9 °F 40% 30.05 in 10.0 mi NW 18.4 mph 25.3 mph N/A   Scattered Clouds
5:54 PM 50.0 °F - 27.0 °F 41% 30.08 in 10.0 mi NW 13.8 mph - N/A   Partly Cloudy
6:54 PM 46.9 °F - 28.0 °F 48% 30.11 in 10.0 mi NW 9.2 mph - N/A   Clear
7:54 PM 46.9 °F - 27.0 °F 46% 30.13 in 10.0 mi NW 17.3 mph 21.9 mph N/A   Clear
8:54 PM 44.1 °F 39.0 °F 27.0 °F 51% 30.13 in 10.0 mi West 9.2 mph - N/A   Clear
9:54 PM 44.1 °F 38.1 °F 27.0 °F 51% 30.13 in 10.0 mi WNW 11.5 mph - N/A   Partly Cloudy
10:54 PM 42.1 °F 36.6 °F 27.0 °F 55% 30.13 in 10.0 mi WNW 9.2 mph - N/A   Partly Cloudy
11:54 PM 41.0 °F 34.3 °F 27.0 °F 57% 30.12 in 10.0 mi WNW 11.5 mph - N/A   Mostly Cloudy